sat.trackr.live / text

‹ back to catalog

STARLINK-6043

NORAD 56464 · 2023-064S

PAYLOAD ACTIVE UNKNOWN

§ Identity

Operator
Country
US
Launch date
2023-05-10
Launch site
AFWTR
Launch vehicle
Mass (kg)
RCS (m²)

Purposes: comms

External: N2YO · Heavens-Above · Gunter

§ Orbital elements

Epoch: 2026-05-25T04:00:27.320832Z

Period
96.11 min
Inclination
69.9997°
Eccentricity
0.0002990
Mean motion
14.98323917 rev/d
Perigee alt
570.0 km
Apogee alt
574.2 km
Semi-major
6,950.2 km
B*
-5.4365e-5
RAAN
311.5443°
Arg perigee
270.3552°
Mean anomaly
89.7264°
Rev number
16,670

§ Raw data

STARLINK-60431 56464U 23064S   26145.16698288 -.00000742  00000+0 -54365-4 0  99972 56464  69.9997 311.5443 0002990 270.3552  89.7264 14.98323917166704

JSON: /api/v1/satellites/56464 · /tle

For live sub-satellite position, see the globe view (requires WebGL).

§ Visibility from observer

Set your observer location to see the next 7 days of passes ≥ 10°. The values pass through the URL so the page stays shareable.

No JS? Fill the form by hand. The geolocation button needs JavaScript.